Cal Poly Station - Weather Data Page - PST Time

Showing 24

Show Past 72 Hours | Show Past 24 Hours xlsx




                Date      RH     Dew  Seasonal     Current   Max Air   Min Air    Wind    Wind    Wind    Gust      Rain
                Time       %   Point      Rain    Air Temp     Since     Since   Speed     Dir    Gust     Dir     Total
                               Deg F    Inches       Deg F  Midnight  Midnight     MPH             MPH            Inches
------------------------------------------------------------------------------------------------------------------------
    05/05/2026 23:45     100    55.3     24.67        55.3      65.1      49.4       0     359       9     318      0.00
    05/05/2026 23:30     100    55.5     24.67        55.5      65.1      49.4       0      25       9     318      0.00
    05/05/2026 23:15     100    55.7     24.67        55.7      65.1      49.4       0     164       9     318      0.00
    05/05/2026 23:00     100    55.7     24.67        55.7      65.1      49.4       0     271       9     318      0.00
    05/05/2026 22:45     100    55.7     24.67        55.7      65.1      49.4       0     296       9     318      0.00
    05/05/2026 22:30     100    55.7     24.67        55.7      65.1      49.4       0       2       9     318      0.00
    05/05/2026 22:15     100    55.9     24.67        55.9      65.1      49.4       0     341       9     318      0.00
    05/05/2026 22:00     100    55.8     24.67        55.8      65.1      49.4       0     267       9     318      0.00
    05/05/2026 21:45     100    56.1     24.67        56.1      65.1      49.4       0     223       9     318      0.00
    05/05/2026 21:30     100    56.1     24.67        56.1      65.1      49.4       0     261       9     318      0.00
    05/05/2026 21:15     100    56.2     24.67        56.3      65.1      49.4       0     238       9     318      0.00
    05/05/2026 21:00      98    56.0     24.67        56.5      65.1      49.4       0     237       9     318      0.00
    05/05/2026 20:45      98    55.9     24.67        56.6      65.1      49.4       3     237       9     318      0.00
    05/05/2026 20:30      97    55.9     24.67        56.8      65.1      49.4       3     209       9     318      0.00
    05/05/2026 20:15      95    55.8     24.67        57.1      65.1      49.4       6     288       9     318      0.00
    05/05/2026 20:00      94    55.6     24.67        57.5      65.1      49.4       6     298       9     318      0.00
    05/05/2026 19:45      91    55.5     24.67        58.0      65.1      49.4       4     269       9     318      0.00
    05/05/2026 19:30      90    55.4     24.67        58.4      65.1      49.4       0     284       9     318      0.00
    05/05/2026 19:15      88    55.1     24.67        58.6      65.1      49.4       0     220       9     318      0.00
    05/05/2026 19:00      87    54.8     24.67        58.6      65.1      49.4       3     307       9     318      0.00
    05/05/2026 18:45      85    54.3     24.67        58.9      65.1      49.4       6     310       9     318      0.00
    05/05/2026 18:30      82    54.1     24.67        59.6      65.1      49.4       4     279       9     318      0.00
    05/05/2026 18:15      80    53.9     24.67        60.1      65.1      49.4       0     240       9     318      0.00
    05/05/2026 18:00      78    53.8     24.67        60.5      65.1      49.4       4     272       9     318      0.00
    05/05/2026 17:45      78    53.9     24.67        60.9      65.1      49.4       6     210       9     318      0.00
    05/05/2026 17:30      76    53.8     24.67        61.3      65.1      49.4       6     226       9     318      0.00
    05/05/2026 17:15      74    53.9     24.67        62.2      65.1      49.4       3     291       9     318      0.00
    05/05/2026 17:00      74    54.6     24.67        63.2      65.1      49.4       5     241       9     318      0.00
    05/05/2026 16:45      76    55.2     24.67        62.8      65.1      49.4       6     273       9     318      0.00
    05/05/2026 16:30      75    55.2     24.67        63.2      65.1      49.4       7     207       9     318      0.00
    05/05/2026 16:15      72    55.5     24.67        64.8      65.1      49.4       7     253       9     318      0.00
    05/05/2026 16:00      72    55.4     24.67        64.7      65.1      49.4       7     302       9     318      0.00
    05/05/2026 15:45      68    54.4     24.67        65.1      65.1      49.4       8     252       9     318      0.00
    05/05/2026 15:30      67    53.2     24.67        64.4      64.8      49.4       9     298       9     318      0.00
    05/05/2026 15:15      66    52.7     24.67        64.5      64.8      49.4       8     241       9     318      0.00
    05/05/2026 15:00      67    52.9     24.67        63.9      64.8      49.4       8     245       9     318      0.00
    05/05/2026 14:45      69    53.8     24.67        64.1      64.8      49.4       8     242       9     318      0.00
    05/05/2026 14:30      73    54.5     24.67        63.4      64.8      49.4       6     301       9     318      0.00
    05/05/2026 14:15      70    53.3     24.67        63.2      64.8      49.4       3     277       9     318      0.00
    05/05/2026 14:00      67    52.4     24.67        63.7      64.8      49.4       0     264       9     318      0.00
    05/05/2026 13:45      68    52.9     24.67        63.6      64.8      49.4       6     221       9     318      0.00
    05/05/2026 13:30      70    53.0     24.67        62.8      64.8      49.4       6     270       9     318      0.00
    05/05/2026 13:15      71    52.2     24.67        61.9      64.8      49.4       2     259       9     318      0.00
    05/05/2026 13:00      69    52.6     24.67        63.0      64.8      49.4       6     235       9     318      0.00
    05/05/2026 12:45      67    52.3     24.67        63.4      64.8      49.4       9     235       9     318      0.00
    05/05/2026 12:30      64    51.6     24.67        63.8      64.8      49.4       5     243       9     318      0.00
    05/05/2026 12:15      62    51.2     24.67        64.5      64.8      49.4       7     268       9     318      0.00
    05/05/2026 12:00      64    51.9     24.67        64.2      64.8      49.4       9     318       9     318      0.00
    05/05/2026 11:45      64    52.4     24.67        64.8      64.8      49.4       9     303       9     303      0.00
    05/05/2026 11:30      65    52.5     24.67        64.5      64.6      49.4       6     284       6     284      0.00
    05/05/2026 11:15      64    52.4     24.67        64.6      64.6      49.4       4       5       5     209      0.00
    05/05/2026 11:00      66    52.4     24.67        63.9      64.6      49.4       5     209       5     209      0.00
    05/05/2026 10:45      64    52.3     24.67        64.6      64.6      49.4       0     181       2     347      0.00
    05/05/2026 10:30      67    53.0     24.67        64.2      64.2      49.4       0     359       2     347      0.00
    05/05/2026 10:15      70    52.8     24.67        62.9      62.9      49.4       2     347       2     347      0.00
    05/05/2026 10:00      73    53.9     24.67        62.5      62.5      49.4       0     322       0     322      0.00
    05/05/2026 09:45      77    53.2     24.67        60.6      60.6      49.4       0     213       0     213      0.00
    05/05/2026 09:30      80    53.1     24.67        59.1      59.1      49.4       0     354       0     354      0.00
    05/05/2026 09:15      84    53.8     24.67        58.5      58.5      49.4       0     203       0     203      0.00
    05/05/2026 09:00      86    53.0     24.67        57.1      57.5      49.4       0     233       0     233      0.00
    05/05/2026 08:45      87    53.2     24.67        57.1      57.5      49.4       0     276       0      48      0.00
    05/05/2026 08:30      91    55.0     24.67        57.5      57.5      49.4       0      48       0      48      0.00
    05/05/2026 08:15      99    56.4     24.67        56.8      56.8      49.4       0      25       0      25      0.00
    05/05/2026 08:00     100    55.9     24.67        55.9      55.9      49.4       0     161       0     161      0.00
    05/05/2026 07:45     100    54.5     24.67        54.5      54.5      49.4       0     193       0     193      0.00
    05/05/2026 07:30     100    52.0     24.67        52.0      53.3      49.4       0      99       0      65      0.00
    05/05/2026 07:15     100    50.6     24.67        50.6      53.3      49.4       0      70       0      65      0.00
    05/05/2026 07:00     100    50.2     24.67        50.2      53.3      49.4       0      53       0      65      0.00
    05/05/2026 06:45     100    49.7     24.67        49.7      53.3      49.4       0      32       0      65      0.00
    05/05/2026 06:30     100    49.8     24.67        49.8      53.3      49.4       0      75       0      65      0.00
    05/05/2026 06:15     100    50.2     24.67        50.2      53.3      49.4       0      48       0      65      0.00
    05/05/2026 06:00     100    49.4     24.67        49.4      53.3      49.4       0      65       0      65      0.00
    05/05/2026 05:45     100    50.2     24.67        50.2      53.3      50.2       0     354       0      65      0.00
    05/05/2026 05:30     100    50.9     24.67        50.9      53.3      50.9       0      66       0      65      0.00
    05/05/2026 05:15     100    51.4     24.67        51.4      53.3      51.1       0      65       0      65      0.00
    05/05/2026 05:00     100    52.0     24.67        52.0      53.3      51.1       0     190       0     190      0.00
    05/05/2026 04:45     100    52.3     24.67        52.3      53.3      51.1       0     203       0     203      0.00
    05/05/2026 04:30     100    52.1     24.67        52.1      53.3      51.1       0     150       0     150      0.00
    05/05/2026 04:15     100    52.0     24.67        52.0      53.3      51.1       0     150       0     150      0.00
    05/05/2026 04:00     100    51.4     24.67        51.4      53.3      51.1       0     200       0     154      0.00
    05/05/2026 03:45     100    51.1     24.67        51.1      53.3      51.1       0      92       0     154      0.00
    05/05/2026 03:30     100    51.5     24.67        51.5      53.3      51.1       0     154       0     154      0.00
    05/05/2026 03:15     100    51.6     24.67        51.6      53.3      51.1       0     208       0     208      0.00
    05/05/2026 03:00     100    52.0     24.67        52.0      53.3      51.1       0     122       0     180      0.00
    05/05/2026 02:45     100    52.3     24.67        52.3      53.3      51.1       0     180       0     180      0.00
    05/05/2026 02:30     100    51.8     24.67        51.8      53.3      51.1       0     186       0     186      0.00
    05/05/2026 02:15     100    51.5     24.67        51.5      53.3      51.1       0      69       0     162      0.00
    05/05/2026 02:00     100    51.1     24.67        51.1      53.3      51.1       0     162       0     162      0.00
    05/05/2026 01:45     100    51.3     24.67        51.3      53.3      51.3       0     137       0     269      0.00
    05/05/2026 01:30     100    51.8     24.67        51.8      53.3      51.8       0     269       0     269      0.00
    05/05/2026 01:15     100    52.2     24.67        52.2      53.3      52.2       0     172       0     172      0.00
    05/05/2026 01:00     100    52.2     24.67        52.2      53.3      52.2       0     205       0     205      0.00
    05/05/2026 00:45     100    52.5     24.67        52.5      53.3      52.5       0      17       0      93      0.00
    05/05/2026 00:30     100    53.0     24.67        53.0      53.3      52.9       0      93       0      93      0.00
    05/05/2026 00:15     100    52.9     24.67        52.9      53.3      52.9       0      74       0     114      0.00
    05/05/2026 00:00     100    53.3     24.67        53.3      53.3      53.3       0     114       0     114      0.00
    05/04/2026 23:45     100    54.0     24.67        54.0      66.6      47.8       0      86      10     261      0.00